Location: Aiyekoto
(8.4333°N, 4.3667°E)
Time: 00:49:19
(UTC+00:00)

Cosmos 1782 - Pass Details

Date: 07 June 2020
Orbit: 535 x 554 km, 82.5° (Epoch: 13 July)

Event Time Altitude Azimuth Distance (km) Brightness Sun altitude
Rises 04:34:37 0° 339° (NNW) 2,689 6.4 -11.9°
Reaches altitude 10° 04:36:59 10° 328° (NNW) 1,795 5.4 -11.3°
Maximum altitude 04:40:24 29° 267° (W) 1,011 3.7 -10.6°
Drops below altitude 10° 04:43:49 10° 207° (SSW) 1,789 5.0 -9.8°
Enters shadow 04:45:36 - 197° (SSW) 2,458 5.7 -9.4°
